This demonstration page uses our WeatherBlox Daily Observations layout. Learn more.

Left ArrowRight Arrow

39.92423, -83.80882

Hourly Observations for May 7, 2020

Temp ( °F °C ) Dew Point ( °F °C ) Humidity (%) Winds ( mph kmh ) Pressure ( in mb ) Visibility ( mi km ) Precip ( " mm )
12:56 am 00:56 Clear 42 5.6 31 -0.6 65 65 WNW 7 11 30.03 1017 10 16.0934 0 0
1:56 am 01:56 Clear 42 5.6 28 -2.2 58 58 Calm 30.03 1017 10 16.0934 0 0
2:56 am 02:56 Clear 38 3.3 33 0.6 83 83 W 9 15 30.03 1017 10 16.0934 0 0
3:56 am 03:56 Clear 40 4.4 29 -1.7 65 65 WNW 8 13 30.02 1017 10 16.0934 0 0
4:56 am 04:56 Clear 38 3.3 30 -1.1 73 73 W 7 11 30.02 1017 10 16.0934 0 0
5:56 am 05:56 Clear 36 2.2 32 0 86 86 SW 7 11 30.02 1017 10 16.0934 0 0
6:56 am 06:56 Sunny 36 2.2 31 -0.6 82 82 SW 6 9 30.03 1017 10 16.0934 0 0
7:56 am 07:56 Sunny 42 5.6 30 -1.1 62 62 SW 7 11 30.03 1017 10 16.0934 0 0
8:56 am 08:56 Sunny 49 9.4 34 1.1 56 56 WSW 9 15 30.03 1017 10 16.0934 0 0
9:56 am 09:56 Sunny 53 11.7 38 3.3 57 57 WSW 9 15 30.02 1017 10 16.0934 0 0
10:56 am 10:56 Sunny 58 14.4 42 5.6 56 56 W 15 24 30.01 1016 10 16.0934 0 0
11:56 am 11:56 Sunny 62 16.7 41 5 46 46 WSW 17 28 29.99 1016 10 16.0934 0 0
12:56 pm 12:56 Mostly Cloudy 64 17.8 35 1.7 34 34 WSW 23 37 29.97 1015 10 16.0934 0 0
1:56 pm 13:56 Mostly Cloudy 65 18.3 36 2.2 34 34 W 21 33 29.94 1014 10 16.0934 0 0
2:56 pm 14:56 Cloudy 65 18.3 37 2.8 36 36 W 23 37 29.94 1014 10 16.0934 0 0
3:56 pm 15:56 Cloudy 63 17.2 37 2.8 38 38 W 20 31 29.93 1014 10 16.0934 0 0
4:56 pm 16:56 Cloudy 64 17.8 38 3.3 38 38 WNW 20 31 29.93 1014 10 16.0934 0 0
5:56 pm 17:56 Cloudy 62 16.7 39 3.9 43 43 W 16 26 29.93 1014 10 16.0934 0 0
6:56 pm 18:56 Cloudy 61 16.1 39 3.9 44 44 W 17 28 29.91 1013 10 16.0934 0 0
7:56 pm 19:56 Cloudy 60 15.6 39 3.9 46 46 WSW 14 22 29.91 1013 10 16.0934 0 0
8:56 pm 20:56 Clear 58 14.4 40 4.4 51 51 WSW 10 17 29.91 1013 10 16.0934 0 0
9:56 pm 21:56 Mostly Cloudy 56 13.3 41 5 57 57 WSW 9 15 29.93 1014 10 16.0934 0 0
10:56 pm 22:56 Mostly Cloudy 57 13.9 40 4.4 53 53 WSW 12 19 29.92 1013 10 16.0934 0 0
11:56 pm 23:56 Mostly Cloudy 55 12.8 41 5 59 59 WSW 10 17 29.9 1012 10 16.0934 0 0

Powered by AerisWeather